Météo par heure à Alimena

Ce jour, 15 Mai, Samedi

Heure Température Précipitation Vent Pression Humidité
00:00 +12°C° 0 mm 2 m/s 696 mmHg 80%
01:00 +12°C° 0 mm 2 m/s 696 mmHg 84%
02:00 +12°C° 0 mm 2 m/s 696 mmHg 87%
03:00 +10°C° 0 mm 3 m/s 695 mmHg 89%
04:00 +9°C° 0 mm 3 m/s 695 mmHg 92%
05:00 +10°C° 0 mm 3 m/s 696 mmHg 84%
06:00 +11°C° 0 mm 4 m/s 696 mmHg 76%
07:00 +12°C° 0 mm 4 m/s 697 mmHg 68%
08:00 +13°C° 0 mm 5 m/s 697 mmHg 58%
09:00 +15°C° 0 mm 5 m/s 698 mmHg 48%
10:00 +16°C° 0 mm 5 m/s 698 mmHg 38%
11:00 +17°C° 0 mm 5 m/s 698 mmHg 35%
12:00 +19°C° 0 mm 6 m/s 699 mmHg 33%
13:00 +19°C° 0 mm 6 m/s 699 mmHg 30%
14:00 +19°C° 0 mm 6 m/s 699 mmHg 32%
15:00 +17°C° 0 mm 5 m/s 699 mmHg 35%
16:00 +16°C° 0 mm 5 m/s 699 mmHg 38%
17:00 +14°C° 0 mm 4 m/s 699 mmHg 44%
18:00 +12°C° 0 mm 3 m/s 698 mmHg 51%
19:00 +10°C° 0 mm 2 m/s 698 mmHg 57%
20:00 +10°C° 0 mm 2 m/s 698 mmHg 55%
21:00 +9°C° 0 mm 2 m/s 698 mmHg 52%
22:00 +9°C° 0 mm 2 m/s 699 mmHg 50%
23:00 +9°C° 0 mm 2 m/s 698 mmHg 50%

Demain, 16 Mai, Dimanche

Heure Température Précipitation Vent Pression Humidité
00:00 +9°C° 0 mm 2 m/s 698 mmHg 51%
01:00 +9°C° 0 mm 2 m/s 698 mmHg 52%
02:00 +9°C° 0 mm 2 m/s 698 mmHg 52%
03:00 +9°C° 0 mm 2 m/s 698 mmHg 52%
04:00 +10°C° 0 mm 1 m/s 697 mmHg 52%
05:00 +12°C° 0 mm 1 m/s 698 mmHg 50%
06:00 +14°C° 0 mm 1 m/s 698 mmHg 48%
07:00 +16°C° 0 mm 1 m/s 698 mmHg 45%
08:00 +19°C° 0 mm 1 m/s 699 mmHg 41%
09:00 +20°C° 0 mm 2 m/s 699 mmHg 36%
10:00 +24°C° 0 mm 3 m/s 700 mmHg 31%
11:00 +24°C° 0 mm 3 m/s 700 mmHg 31%
12:00 +25°C° 0 mm 4 m/s 699 mmHg 30%
13:00 +26°C° 0 mm 4 m/s 699 mmHg 29%
14:00 +26°C° 0 mm 4 m/s 699 mmHg 30%
15:00 +26°C° 0 mm 4 m/s 699 mmHg 31%
16:00 +26°C° 0 mm 4 m/s 699 mmHg 32%
17:00 +24°C° 0 mm 3 m/s 698 mmHg 38%
18:00 +20°C° 0 mm 2 m/s 698 mmHg 44%
19:00 +19°C° 0 mm 1 m/s 698 mmHg 51%
20:00 +18°C° 0 mm 1 m/s 698 mmHg 53%
21:00 +16°C° 0 mm 1 m/s 698 mmHg 55%
22:00 +15°C° 0 mm 1 m/s 698 mmHg 57%
23:00 +15°C° 0 mm 1 m/s 697 mmHg 57%

Après-demain, 17 Mai, Lundi

Heure Température Précipitation Vent Pression Humidité
00:00 +14°C° 0 mm 1 m/s 697 mmHg 57%
01:00 +14°C° 0 mm 1 m/s 697 mmHg 57%
02:00 +14°C° 0 mm 1 m/s 697 mmHg 54%
03:00 +14°C° 0 mm 1 m/s 697 mmHg 52%
04:00 +14°C° 0 mm 1 m/s 697 mmHg 50%
05:00 +16°C° 0 mm 1 m/s 697 mmHg 46%
06:00 +19°C° 0 mm 1 m/s 698 mmHg 42%
07:00 +21°C° 0 mm 1 m/s 698 mmHg 37%
08:00 +24°C° 0 mm 2 m/s 699 mmHg 33%
09:00 +26°C° 0 mm 2 m/s 699 mmHg 29%
10:00 +28°C° 0 mm 3 m/s 700 mmHg 25%
11:00 +29°C° 0 mm 3 m/s 700 mmHg 24%
12:00 +30°C° 0 mm 4 m/s 699 mmHg 23%
13:00 +32°C° 0 mm 4 m/s 699 mmHg 22%
14:00 +30°C° 0 mm 4 m/s 699 mmHg 23%
15:00 +30°C° 0 mm 4 m/s 699 mmHg 24%
16:00 +29°C° 0 mm 3 m/s 699 mmHg 25%
17:00 +27°C° 0 mm 3 m/s 699 mmHg 32%
18:00 +24°C° 0 mm 2 m/s 698 mmHg 40%
19:00 +21°C° 0 mm 1 m/s 698 mmHg 47%
20:00 +20°C° 0 mm 1 m/s 698 mmHg 48%
21:00 +19°C° 0 mm 1 m/s 699 mmHg 49%
22:00 +18°C° 0 mm 1 m/s 699 mmHg 49%
23:00 +18°C° 0 mm 1 m/s 699 mmHg 49%

18 Mai, Mardi

Heure Température Précipitation Vent Pression Humidité
00:00 +18°C° 0 mm 1 m/s 698 mmHg 48%
01:00 +18°C° 0 mm 1 m/s 698 mmHg 48%
02:00 +18°C° 0 mm 1 m/s 698 mmHg 46%
03:00 +18°C° 0 mm 1 m/s 698 mmHg 45%
04:00 +18°C° 0 mm 1 m/s 698 mmHg 44%
05:00 +20°C° 0 mm 1 m/s 698 mmHg 42%
06:00 +21°C° 0 mm 1 m/s 699 mmHg 39%
07:00 +23°C° 0 mm 1 m/s 700 mmHg 37%
08:00 +25°C° 0 mm 2 m/s 700 mmHg 34%
09:00 +27°C° 0 mm 2 m/s 700 mmHg 31%
10:00 +28°C° 0 mm 2 m/s 701 mmHg 27%
11:00 +29°C° 0 mm 3 m/s 700 mmHg 28%
12:00 +29°C° 0 mm 3 m/s 700 mmHg 29%
13:00 +30°C° 0 mm 4 m/s 700 mmHg 30%
14:00 +28°C° 0 mm 4 m/s 700 mmHg 34%
15:00 +27°C° 0 mm 4 m/s 700 mmHg 38%
16:00 +26°C° 0 mm 4 m/s 700 mmHg 43%
17:00 +22°C° 0 mm 3 m/s 700 mmHg 50%
18:00 +20°C° 0 mm 3 m/s 700 mmHg 57%
19:00 +17°C° 0 mm 2 m/s 700 mmHg 65%
20:00 +16°C° 0 mm 2 m/s 700 mmHg 66%
21:00 +15°C° 0 mm 2 m/s 700 mmHg 66%
22:00 +14°C° 0 mm 2 m/s 700 mmHg 67%
23:00 +14°C° 0 mm 2 m/s 700 mmHg 65%

19 Mai, Mercredi

Heure Température Précipitation Vent Pression Humidité
00:00 +12°C° 0 mm 3 m/s 700 mmHg 62%
01:00 +12°C° 0 mm 3 m/s 700 mmHg 59%
02:00 +11°C° 0 mm 3 m/s 700 mmHg 62%
03:00 +11°C° 0 mm 3 m/s 700 mmHg 65%
04:00 +10°C° 0 mm 3 m/s 699 mmHg 68%
05:00 +12°C° 0 mm 3 m/s 700 mmHg 61%
06:00 +13°C° 0 mm 3 m/s 701 mmHg 54%
07:00 +14°C° 0 mm 3 m/s 701 mmHg 48%
08:00 +17°C° 0 mm 3 m/s 702 mmHg 39%
09:00 +19°C° 0 mm 4 m/s 702 mmHg 31%
10:00 +21°C° 0 mm 4 m/s 702 mmHg 22%
11:00 +22°C° 0 mm 4 m/s 702 mmHg 21%
12:00 +22°C° 0 mm 5 m/s 702 mmHg 20%
13:00 +23°C° 0 mm 5 m/s 702 mmHg 18%
14:00 +22°C° 0 mm 5 m/s 702 mmHg 21%
15:00 +21°C° 0 mm 5 m/s 702 mmHg 24%
16:00 +21°C° 0 mm 5 m/s 702 mmHg 26%
17:00 +18°C° 0 mm 4 m/s 701 mmHg 36%
18:00 +16°C° 0 mm 3 m/s 701 mmHg 46%
19:00 +13°C° 0 mm 2 m/s 701 mmHg 56%
20:00 +12°C° 0 mm 2 m/s 701 mmHg 57%
21:00 +10°C° 0 mm 2 m/s 701 mmHg 59%
22:00 +9°C° 0 mm 2 m/s 701 mmHg 60%
23:00 +9°C° 0 mm 2 m/s 701 mmHg 56%

20 Mai, Jeudi

Heure Température Précipitation Vent Pression Humidité
00:00 +9°C° 0 mm 2 m/s 701 mmHg 51%
01:00 +9°C° 0 mm 2 m/s 701 mmHg 46%
02:00 +9°C° 0 mm 2 m/s 701 mmHg 47%
03:00 +9°C° 0 mm 2 m/s 701 mmHg 47%
04:00 +9°C° 0 mm 2 m/s 701 mmHg 47%
05:00 +10°C° 0 mm 2 m/s 701 mmHg 44%
06:00 +13°C° 0 mm 1 m/s 701 mmHg 42%
07:00 +15°C° 0 mm 1 m/s 702 mmHg 39%
08:00 +17°C° 0 mm 2 m/s 702 mmHg 35%
09:00 +18°C° 0 mm 2 m/s 703 mmHg 30%
10:00 +20°C° 0 mm 3 m/s 703 mmHg 26%
11:00 +21°C° 0 mm 3 m/s 703 mmHg 26%
12:00 +22°C° 0 mm 3 m/s 703 mmHg 25%
13:00 +24°C° 0 mm 3 m/s 703 mmHg 25%
14:00 +24°C° 0 mm 3 m/s 703 mmHg 27%
15:00 +22°C° 0 mm 3 m/s 703 mmHg 29%
16:00 +22°C° 0 mm 3 m/s 703 mmHg 31%
17:00 +19°C° 0 mm 3 m/s 702 mmHg 40%
18:00 +17°C° 0 mm 2 m/s 702 mmHg 49%
19:00 +14°C° 0 mm 1 m/s 702 mmHg 59%
20:00 +13°C° 0 mm 1 m/s 702 mmHg 62%
21:00 +12°C° 0 mm 1 m/s 702 mmHg 65%
22:00 +11°C° 0 mm 1 m/s 703 mmHg 69%
23:00 +11°C° 0 mm 1 m/s 702 mmHg 69%
Voir plus

Nous avons besoin de votre consentement

Meteoprog et ses fournisseurs de services peuvent stocker et accéder à des données personnelles telles que des cookies, des identifiants d'appareils ou d'autres technologies similaires sur votre appareil et traiter ces données pour personnaliser le contenu et les publicités, ainsi que pour fournir des fonctionnalités de médias sociaux et analyser le trafic.

  • Stocker et/ou accéder à des informations sur votre appareil

    Des cookies, des identifiants d'appareils ou d'autres informations peuvent être stockés ou accessibles sur votre appareil aux fins indiquées ci-dessus.

  • Annonces et contenus personnalisés, mesure des annonces et des contenus, connaissance de l'audience et développement de produits

    Les annonces et le contenu peuvent être personnalisés en fonction d'un profil. D'autres données peuvent être ajoutées pour mieux personnaliser les annonces et le contenu. Les performances des publicités et du contenu peuvent être mesurées. Il est possible d'obtenir des informations sur le public qui a vu les publicités et le contenu. Ces données peuvent être utilisées pour développer ou améliorer l'expérience de l'utilisateur, les systèmes et les logiciels.

En cliquant sur "J'accepte", vous autorisez l'utilisation de cookies, des identifiants d'appareils, des balises web ou d'autres technologies similaires. Vos paramètres peuvent être modifiés dans le navigateur de votre appareil.

Dans certains cas, des intérêts légitimes peuvent être invoqués plutôt qu'un consentement. Vous pouvez en savoir plus à ce sujet dans notre Politique de confidentialité et de cookies.